Location: Chanteloup
(48.8560°N, 2.7390°E)
Time: 13:01:25
(UTC+00:00)

Cosmos 1758 Rocket - Visible Passes

Search period start: 29 May 2022 00:00
Search period end: 08 June 2022 00:00
Orbit: 600 x 636 km, 82.5° (Epoch: 28 May)

Date Brightness Start Highest point End Pass type
(mag) Time Alt. Az. Time Alt. Az. Time Alt. Az.
31 May 6.2 02:30:12 10° ESE 02:32:54 16° E 02:35:37 10° NE visible
01 Jun 5.5 02:46:10 10° SSE 02:49:51 28° E 02:53:32 10° NNE visible
02 Jun 4.5 03:02:42 10° SSE 03:06:52 48° E 03:11:02 10° NNE visible
04 Jun 6.1 02:00:59 10° SE 02:03:45 17° E 02:06:31 10° NE visible
05 Jun 5.3 02:16:59 10° SSE 02:20:41 28° E 02:24:24 10° NNE visible
06 Jun 4.3 02:33:33 10° S 02:37:43 50° E 02:41:54 10° NNE visible
07 Jun 3.5 02:50:30 10° S 02:54:50 89° ESE 02:59:10 10° N visible
